EW9904 Weather Reports


Display with metric or nautical units.
time (UTC)temp
F
wind
direction
speed
MPH
gust
MPH
rain 1hr
in
rain 24hr
in
rain mn
in
humidity
%
barometer
mb
20260902044004 73 28 3.0 8.0 0.28 0.67 0.28 92 1017.8
20260902043503 73 59 3.0 8.0 0.19 0.58 0.19 92 1016.9
20260902042004 73 80 3.0 8.0 0.08 0.46 0.07 92 1016.0
20260902041505 73 89 3.0 11.0 0.01 0.39 0.00 92 1016.4
20260902041003 73 88 4.0 11.0 0.02 0.39 0.00 92 1016.2
20260902040005 73 92 4.0 10.0 0.18 0.39 0.39 92 1016.3
20260902035004 74 130 4.0 14.0 0.39 0.39 0.39 92 1016.2
20260902034503 73 83 1.0 6.0 0.39 0.39 0.39 92 1016.4
20260902034004 73 188 0.0 1.0 0.39 0.39 0.39 92 1015.8
20260902033503 73 188 1.0 2.0 0.39 0.39 0.39 92 1015.6
20260902033004 73 188 1.0 3.0 0.38 0.38 0.38 92 1015.7
20260902032504 73 188 1.0 3.0 0.38 0.38 0.38 91 1015.8
20260902032005 73 209 1.0 2.0 0.38 0.38 0.38 91 1015.8
20260902031503 73 209 2.0 6.0 0.37 0.37 0.37 90 1015.9
20260902031005 73 209 4.0 13.0 0.37 0.37 0.37 90 1016.0
20260902030504 74 332 8.0 18.0 0.30 0.30 0.30 89 1017.1
20260902030007 74 286 11.0 24.0 0.21 0.21 0.21 87 1017.5
20260902025505 75 323 10.0 24.0 0.01 0.01 0.01 84 1017.3
20260902025005 77 5 9.0 21.0 0.00 0.00 0.00 80 1016.8
20260902024005 79 19 8.0 21.0 0.00 0.00 0.00 77 1016.3
20260902023504 80 54 7.0 21.0 0.00 0.00 0.00 76 1015.9
20260902023005 80 15 7.0 22.0 0.00 0.00 0.00 78 1015.8
20260902022006 80 333 1.0 5.0 0.00 0.00 0.00 84 1014.5
20260902021504 80 250 1.0 2.0 0.00 0.00 0.00 83 1014.5
20260902021005 81 250 1.0 2.0 0.00 0.00 0.00 83 1014.2
20260902020505 81 250 1.0 2.0 0.00 0.00 0.00 84 1014.2
20260902020006 80 250 1.0 2.0 0.00 0.00 0.00 84 1014.4
20260902015005 80 250 1.0 4.0 0.00 0.00 0.00 84 1014.0
20260902014505 81 250 1.0 2.0 0.00 0.00 0.00 83 1013.9
20260902014005 81 250 0.0 2.0 0.00 0.00 0.00 83 1014.2
20260902012504 81 250 0.0 3.0 0.00 0.00 0.00 82 1013.7
20260902011504 81 250 1.0 3.0 0.00 0.00 0.00 82 1013.7
20260902011004 81 262 1.0 3.0 0.00 0.00 0.00 82 1013.7
20260902010503 81 262 0.0 3.0 0.00 0.00 0.00 83 1013.7
20260902010006 81 262 0.0 2.0 0.00 0.00 0.00 83 1013.6
20260902005504 81 262 0.0 2.0 0.00 0.00 0.00 82 1013.9
20260902005004 81 262 1.0 2.0 0.00 0.00 0.00 82 1013.8
20260902004504 82 262 1.0 2.0 0.00 0.00 0.00 82 1013.7
20260902003005 82 262 1.0 3.0 0.00 0.00 0.00 82 1013.5
20260902002502 82 262 1.0 3.0 0.00 0.00 0.00 82 1013.1
20260902002004 82 262 0.0 2.0 0.00 0.00 0.00 82 1013.0
20260902001502 82 262 0.0 3.0 0.00 0.00 0.00 81 1012.9
20260902001004 82 262 0.0 3.0 0.00 0.00 0.00 81 1013.0
20260901235503 82 263 0.0 1.0 0.00 0.00 0.00 80 1013.3
20260901235004 83 263 0.0 1.0 0.00 0.00 0.00 79 1013.5
20260901234503 82 263 0.0 1.0 0.00 0.00 0.00 80 1013.4
20260901234004 83 263 0.0 1.0 0.00 0.00 0.00 79 1013.5
20260901233503 83 263 0.0 1.0 0.00 0.00 0.00 78 1013.3
20260901233004 84 263 0.0 2.0 0.00 0.00 0.00 77 1013.4
20260901232504 84 263 0.0 2.0 0.00 0.00 0.00 78 1013.3
20260901232005 83 263 0.0 2.0 0.00 0.00 0.00 79 1013.4
20260901231503 83 263 0.0 2.0 0.00 0.00 0.00 78 1013.5
20260901231003 84 263 0.0 0.0 0.00 0.00 0.00 77 1013.5
20260901230503 84 263 0.0 0.0 0.00 0.00 0.00 78 1013.5
20260901230006 84 263 0.0 0.0 0.00 0.00 0.00 78 1013.5
20260901225502 85 263 0.0 0.0 0.00 0.00 0.00 76 1013.6
20260901225003 85 263 0.0 0.0 0.00 0.00 0.00 76 1013.6
20260901224504 85 263 0.0 0.0 0.00 0.00 0.00 76 1013.5
20260901224003 85 263 0.0 1.0 0.00 0.00 0.00 76 1013.5
20260901223502 85 263 1.0 1.0 0.00 0.00 0.00 76 1013.5
20260901222501 86 263 1.0 2.0 0.00 0.00 0.00 74 1013.6
20260901222002 87 263 1.0 3.0 0.00 0.00 0.00 74 1013.7
20260901221501 87 263 1.0 3.0 0.00 0.00 0.00 72 1013.8
20260901220501 88 263 1.0 4.0 0.00 0.00 0.00 69 1013.7
20260901220008 88 253 2.0 5.0 0.00 0.00 0.00 69 1013.7
20260901215502 89 254 1.0 5.0 0.00 0.00 0.00 69 1013.7
20260901215002 89 266 1.0 6.0 0.00 0.00 0.00 70 1013.8
20260901214502 89 272 1.0 3.0 0.00 0.00 0.00 69 1013.8
20260901214003 90 271 1.0 3.0 0.00 0.00 0.00 70 1013.7
20260901213501 90 271 1.0 4.0 0.00 0.00 0.00 68 1013.9
20260901213003 89 272 2.0 5.0 0.00 0.00 0.00 69 1013.9
20260901212502 89 290 2.0 5.0 0.00 0.00 0.00 67 1013.9
20260901212002 90 313 2.0 4.0 0.00 0.00 0.00 67 1013.9
20260901211503 90 288 2.0 4.0 0.00 0.00 0.00 67 1013.8
20260901211002 90 257 1.0 4.0 0.00 0.00 0.00 68 1013.8
20260901210006 90 260 2.0 4.0 0.00 0.00 0.00 66 1013.9
20260901205502 90 263 2.0 3.0 0.00 0.00 0.00 67 1013.9
20260901205005 90 259 2.0 8.0 0.00 0.00 0.00 67 1013.9
20260901204504 90 259 1.0 7.0 0.00 0.00 0.00 66 1013.9
20260901204003 91 261 1.0 4.0 0.00 0.00 0.00 66 1013.9
20260901203502 90 271 1.0 6.0 0.00 0.00 0.00 66 1013.9
20260901203004 90 271 2.0 6.0 0.00 0.00 0.00 66 1014.0
20260901202003 89 272 2.0 6.0 0.00 0.00 0.00 68 1014.1
20260901201503 89 272 2.0 6.0 0.00 0.00 0.00 69 1014.2
20260901201003 89 355 1.0 3.0 0.00 0.00 0.00 70 1014.2
20260901200502 89 360 1.0 4.0 0.00 0.00 0.00 70 1014.3
20260901200006 89 360 2.0 6.0 0.00 0.00 0.00 67 1014.4
20260901195002 89 306 1.0 4.0 0.00 0.00 0.00 68 1014.6
20260901194003 90 308 1.0 3.0 0.00 0.00 0.00 68 1014.5
20260901193502 90 308 1.0 4.0 0.00 0.00 0.00 66 1014.6
20260901193002 90 309 1.0 4.0 0.00 0.00 0.00 70 1014.5
20260901192501 90 309 1.0 2.0 0.00 0.00 0.00 71 1014.5
20260901192002 89 309 1.0 2.0 0.00 0.00 0.00 72 1014.5
20260901191503 89 309 1.0 4.0 0.00 0.00 0.00 73 1014.6
20260901191003 88 309 1.0 4.0 0.00 0.00 0.00 75 1014.6
20260901190502 87 310 1.0 2.0 0.00 0.00 0.00 77 1014.5
20260901190006 86 310 0.0 2.0 0.00 0.00 0.00 76 1014.5
20260901185503 86 310 0.0 1.0 0.00 0.00 0.00 76 1014.6
20260901185003 87 309 0.0 1.0 0.00 0.00 0.00 75 1014.7
20260901184502 87 309 1.0 4.0 0.00 0.00 0.00 73 1014.8
20260901183502 87 288 2.0 7.0 0.00 0.00 0.00 70 1014.6
20260901183004 88 291 2.0 7.0 0.00 0.00 0.00 70 1014.6
20260901182503 89 312 2.0 4.0 0.00 0.00 0.00 71 1014.7
20260901182003 90 313 2.0 4.0 0.00 0.00 0.00 68 1014.8
20260901181003 89 313 1.0 4.0 0.00 0.00 0.00 72 1014.8
20260901180502 88 313 1.0 4.0 0.00 0.00 0.00 74 1014.9
20260901180006 88 316 1.0 4.0 0.00 0.00 0.00 72 1014.9
20260901175502 88 323 1.0 4.0 0.00 0.00 0.00 71 1015.0
20260901175003 88 323 2.0 9.0 0.00 0.00 0.00 71 1015.0
20260901174002 89 334 3.0 10.0 0.00 0.00 0.00 71 1015.1
20260901173502 89 315 4.0 12.0 0.00 0.00 0.00 69 1015.0
20260901173002 90 304 4.0 12.0 0.00 0.00 0.00 67 1015.0
20260901172503 91 335 2.0 6.0 0.00 0.00 0.00 68 1015.0
20260901172004 91 280 2.0 5.0 0.00 0.00 0.00 73 1015.0
20260901171502 91 321 2.0 6.0 0.00 0.00 0.00 68 1015.1
20260901171002 90 329 3.0 6.0 0.00 0.00 0.00 70 1015.2
20260901170501 91 258 3.0 9.0 0.00 0.00 0.00 70 1015.2
20260901165501 90 341 3.0 8.0 0.00 0.00 0.00 67 1015.2
20260901165002 90 326 3.0 8.0 0.00 0.00 0.00 69 1015.3
20260901163501 90 300 3.0 9.0 0.00 0.00 0.00 69 1015.5
20260901163001 90 280 2.0 6.0 0.00 0.00 0.00 72 1015.5
20260901162500 90 264 2.0 6.0 0.00 0.00 0.00 70 1015.5
20260901162001 91 284 2.0 4.0 0.00 0.00 0.00 72 1015.5
20260901161001 89 282 2.0 5.0 0.00 0.00 0.00 72 1015.7
20260901160501 89 303 2.0 7.0 0.00 0.00 0.00 73 1015.7
20260901160002 89 311 2.0 7.0 0.00 0.00 0.00 72 1015.8
20260901155501 88 273 2.0 6.0 0.00 0.00 0.00 73 1015.7
20260901155003 88 274 2.0 6.0 0.00 0.00 0.00 73 1015.7
20260901154501 90 271 2.0 4.0 0.00 0.00 0.00 73 1015.7
20260901154003 88 271 2.0 4.0 0.00 0.00 0.00 74 1015.8
20260901153501 88 265 2.0 4.0 0.00 0.00 0.00 73 1015.9
20260901153002 87 266 2.0 4.0 0.00 0.00 0.00 73 1016.0
20260901152002 86 272 2.0 5.0 0.00 0.00 0.00 74 1016.1
20260901151501 87 299 1.0 4.0 0.00 0.00 0.00 75 1016.1
20260901151002 88 299 1.0 4.0 0.00 0.00 0.00 72 1016.1
20260901150501 87 300 1.0 4.0 0.00 0.00 0.00 74 1016.0
20260901150001 87 300 2.0 4.0 0.00 0.00 0.00 73 1016.0
20260901145502 87 330 2.0 5.0 0.00 0.00 0.00 72 1016.1
20260901145002 87 331 2.0 5.0 0.00 0.00 0.00 74 1016.2
20260901144500 87 256 1.0 3.0 0.00 0.00 0.00 72 1016.2
20260901144001 86 256 2.0 6.0 0.00 0.00 0.00 73 1016.2
20260901143502 87 256 3.0 7.0 0.00 0.00 0.00 74 1016.3
20260901142501 86 252 1.0 5.0 0.00 0.00 0.00 75 1016.3
20260901141503 86 251 2.0 4.0 0.00 0.00 0.00 74 1016.2
20260901140501 85 247 2.0 7.0 0.00 0.00 0.00 77 1016.4
20260901140006 85 286 2.0 8.0 0.00 0.00 0.00 78 1016.5
20260901135501 85 273 2.0 8.0 0.00 0.00 0.00 78 1016.5
20260901134501 84 317 2.0 6.0 0.00 0.00 0.00 80 1016.6
20260901134002 84 321 2.0 6.0 0.00 0.00 0.00 81 1016.6
20260901133501 84 309 1.0 4.0 0.00 0.00 0.00 82 1016.6
20260901133001 83 309 1.0 4.0 0.00 0.00 0.00 83 1016.7
20260901132501 82 309 2.0 5.0 0.00 0.00 0.00 81 1016.6
20260901132001 82 250 1.0 5.0 0.00 0.00 0.00 83 1016.6
20260901131500 82 250 1.0 4.0 0.00 0.00 0.00 84 1016.6
20260901131001 82 250 1.0 3.0 0.00 0.00 0.00 86 1016.6
20260901130501 81 250 1.0 4.0 0.00 0.00 0.00 87 1016.7
20260901130000 81 250 1.0 5.0 0.00 0.00 0.00 87 1016.6
20260901125500 80 249 1.0 6.0 0.00 0.00 0.00 89 1016.7
20260901125001 80 264 2.0 6.0 0.00 0.00 0.00 90 1016.8
20260901124000 78 311 1.0 3.0 0.00 0.00 0.00 93 1016.8
20260901123501 78 313 1.0 4.0 0.00 0.00 0.00 93 1016.8
20260901123001 77 252 1.0 5.0 0.00 0.00 0.00 94 1016.9
20260901122500 77 252 1.0 5.0 0.00 0.00 0.00 94 1016.9
20260901120500 76 213 1.0 2.0 0.00 0.00 0.00 94 1017.0
20260901120005 75 213 1.0 2.0 0.00 0.00 0.00 95 1017.0
20260901115500 75 213 0.0 2.0 0.00 0.00 0.00 95 1016.9
20260901115000 75 213 0.0 2.0 0.00 0.00 0.00 94 1016.9
20260901114459 75 213 0.0 2.0 0.00 0.00 0.00 95 1016.9
20260901114001 75 213 0.0 2.0 0.00 0.00 0.00 95 1016.9
20260901113501 74 213 0.0 2.0 0.00 0.00 0.00 94 1016.9
20260901113001 74 213 0.0 2.0 0.00 0.00 0.00 94 1017.0
20260901112500 74 213 0.0 1.0 0.00 0.00 0.00 94 1016.9
20260901112001 74 213 0.0 3.0 0.00 0.00 0.00 94 1016.8
20260901111459 74 213 0.0 3.0 0.00 0.00 0.00 94 1016.5
20260901111000 73 213 0.0 2.0 0.00 0.00 0.00 94 1016.5
20260901110500 73 213 0.0 2.0 0.00 0.00 0.00 94 1016.5
20260901110006 73 213 0.0 2.0 0.00 0.00 0.00 94 1016.4
20260901105003 73 211 0.0 2.0 0.00 0.00 0.00 94 1016.4
20260901104001 73 211 0.0 2.0 0.00 0.00 0.00 94 1016.3
20260901103501 73 211 0.0 2.0 0.00 0.00 0.00 94 1016.4
20260901102501 73 211 0.0 3.0 0.00 0.00 0.00 94 1016.5
20260901101501 72 119 0.0 2.0 0.00 0.00 0.00 94 1016.5
20260901101002 72 119 0.0 2.0 0.00 0.00 0.00 94 1016.6
20260901100500 72 119 0.0 0.0 0.00 0.00 0.00 94 1016.5
20260901100002 72 119 0.0 1.0 0.00 0.00 0.00 94 1016.4
20260901095500 72 119 0.0 1.0 0.00 0.00 0.00 94 1016.4
20260901095000 72 119 0.0 0.0 0.00 0.00 0.00 94 1016.3
20260901094459 72 119 0.0 0.0 0.00 0.00 0.00 94 1016.3
20260901093459 72 119 0.0 1.0 0.00 0.00 0.00 94 1016.4
20260901092459 72 119 0.0 1.0 0.00 0.00 0.00 94 1016.4
20260901092001 72 119 0.0 1.0 0.00 0.00 0.00 94 1016.4
20260901091500 72 119 0.0 1.0 0.00 0.00 0.00 94 1016.4
20260901091000 72 119 0.0 0.0 0.00 0.00 0.00 94 1016.3
20260901090500 72 119 0.0 1.0 0.00 0.00 0.00 94 1016.3
20260901090005 72 119 0.0 1.0 0.00 0.00 0.00 94 1016.3
20260901085459 72 119 0.0 0.0 0.00 0.00 0.00 94 1016.5
20260901084459 72 119 0.0 0.0 0.00 0.00 0.00 93 1016.6
20260901084001 72 119 0.0 0.0 0.00 0.00 0.00 93 1016.6
20260901082459 72 119 0.0 0.0 0.00 0.00 0.00 93 1016.5
20260901082001 72 119 0.0 0.0 0.00 0.00 0.00 93 1016.5
20260901080501 72 119 0.0 1.0 0.00 0.00 0.00 93 1016.5
20260901075500 72 119 0.0 1.0 0.00 0.00 0.00 93 1016.7
20260901074500 72 119 0.0 0.0 0.00 0.00 0.00 93 1016.8
20260901074000 72 119 0.0 0.0 0.00 0.00 0.00 93 1016.7
20260901073500 72 119 0.0 1.0 0.00 0.00 0.00 93 1016.7
20260901073000 72 119 0.0 1.0 0.00 0.00 0.00 93 1016.8
20260901072501 72 119 0.0 1.0 0.00 0.00 0.00 93 1016.7
20260901072000 72 119 0.0 1.0 0.00 0.00 0.00 93 1016.8
20260901071507 72 119 0.0 1.0 0.00 0.00 0.00 93 1016.8
20260901070459 73 119 0.0 0.0 0.00 0.00 0.00 93 1016.7
20260901070006 73 119 0.0 0.0 0.00 0.00 0.00 93 1016.7
20260901065001 73 119 0.0 1.0 0.00 0.00 0.00 93 1016.8
20260901064459 73 119 0.0 0.0 0.00 0.00 0.00 93 1016.9
20260901064001 73 119 0.0 0.0 0.00 0.00 0.00 93 1016.9
20260901063001 73 119 0.0 0.0 0.00 0.00 0.00 93 1016.9
20260901062500 73 119 0.0 0.0 0.00 0.00 0.00 92 1017.0
20260901062000 73 119 0.0 1.0 0.00 0.00 0.00 93 1017.0
20260901061459 73 119 0.0 1.0 0.00 0.00 0.00 92 1017.1
20260901061000 73 119 1.0 2.0 0.00 0.00 0.00 92 1017.1
20260901060500 73 119 1.0 2.0 0.00 0.00 0.00 92 1017.1
20260901060000 73 119 0.0 1.0 0.00 0.00 0.00 92 1017.3
20260901054458 74 119 0.0 1.0 0.00 0.00 0.00 92 1017.5
20260901054000 74 119 0.0 0.0 0.00 0.00 0.00 92 1017.6
20260901052458 74 119 0.0 0.0 0.00 0.00 0.00 92 1017.8
20260901052000 74 119 0.0 0.0 0.00 0.00 0.00 92 1017.9
20260901051459 74 119 0.0 0.0 0.00 0.00 0.00 92 1017.9
20260901050959 74 119 0.0 0.0 0.00 0.00 0.00 92 1018.0
20260901050459 74 119 0.0 0.0 0.00 0.00 0.00 92 1018.0
20260901050005 74 119 0.0 1.0 0.00 0.00 0.00 92 1018.0
20260901045503 74 119 0.0 1.0 0.00 0.00 0.00 92 1018.0
20260901045003 74 119 0.0 1.0 0.00 0.00 0.00 92 1018.0